When you browse on this site, cookies collect data to enhance your experience and personalize the content and advertising you see.
Visit our Privacy Policy to learn more. By continuing to use the site, you agree to this use of cookies and data.
  • en France
  • Liste des pays
  • À 7 jours
  • Température de l'eau
  • Carte météo
  • Widgets météo
  • user-avatar
    Se connecter

    Météo par heure à Mansa

    Ce jour, 4 Juin, Jeudi

    Heure Température Précipitation Vent Pression Humidité
    00:00 +17°C° 0 mm 2 m/s 661 mmHg 62%
    01:00 +17°C° 0 mm 2 m/s 661 mmHg 68%
    02:00 +16°C° 0 mm 2 m/s 661 mmHg 73%
    03:00 +16°C° 0 mm 3 m/s 661 mmHg 75%
    04:00 +14°C° 0 mm 3 m/s 661 mmHg 77%
    05:00 +14°C° 0 mm 3 m/s 661 mmHg 78%
    06:00 +16°C° 0 mm 3 m/s 661 mmHg 75%
    07:00 +17°C° 0 mm 3 m/s 662 mmHg 72%
    08:00 +18°C° 0 mm 3 m/s 662 mmHg 69%
    09:00 +21°C° 0 mm 3 m/s 663 mmHg 62%
    10:00 +24°C° 0 mm 3 m/s 663 mmHg 54%
    11:00 +27°C° 0 mm 3 m/s 664 mmHg 47%
    12:00 +28°C° 0 mm 2 m/s 663 mmHg 43%
    13:00 +29°C° 0 mm 1 m/s 663 mmHg 39%
    14:00 +31°C° 0 mm 1 m/s 662 mmHg 36%
    15:00 +29°C° 0 mm 1 m/s 662 mmHg 40%
    16:00 +28°C° 0 mm 1 m/s 661 mmHg 43%
    17:00 +27°C° 0 mm 1 m/s 661 mmHg 47%
    18:00 +25°C° 0 mm 1 m/s 661 mmHg 51%
    19:00 +23°C° 0 mm 1 m/s 661 mmHg 55%
    20:00 +21°C° 0 mm 1 m/s 661 mmHg 58%
    21:00 +20°C° 0 mm 2 m/s 661 mmHg 60%
    22:00 +19°C° 0 mm 2 m/s 661 mmHg 61%
    23:00 +19°C° 0 mm 2 m/s 661 mmHg 62%

    Demain, 5 Juin, Vendredi

    Heure Température Précipitation Vent Pression Humidité
    00:00 +18°C° 0 mm 2 m/s 661 mmHg 66%
    01:00 +17°C° 0 mm 2 m/s 661 mmHg 70%
    02:00 +17°C° 0 mm 3 m/s 661 mmHg 73%
    03:00 +16°C° 0 mm 3 m/s 661 mmHg 74%
    04:00 +16°C° 0 mm 3 m/s 661 mmHg 75%
    05:00 +16°C° 0 mm 3 m/s 661 mmHg 76%
    06:00 +17°C° 0 mm 3 m/s 662 mmHg 73%
    07:00 +18°C° 0 mm 3 m/s 663 mmHg 71%
    08:00 +19°C° 0 mm 3 m/s 663 mmHg 69%
    09:00 +21°C° 0 mm 3 m/s 663 mmHg 61%
    10:00 +25°C° 0 mm 3 m/s 664 mmHg 53%
    11:00 +27°C° 0 mm 2 m/s 664 mmHg 45%
    12:00 +28°C° 0 mm 2 m/s 664 mmHg 41%
    13:00 +29°C° 0 mm 2 m/s 663 mmHg 38%
    14:00 +30°C° 0 mm 2 m/s 663 mmHg 35%
    15:00 +29°C° 0 mm 1 m/s 662 mmHg 39%
    16:00 +28°C° 0 mm 1 m/s 661 mmHg 43%
    17:00 +27°C° 0 mm 1 m/s 661 mmHg 47%
    18:00 +25°C° 0 mm 1 m/s 661 mmHg 50%
    19:00 +23°C° 0 mm 1 m/s 661 mmHg 53%
    20:00 +21°C° 0 mm 1 m/s 661 mmHg 56%
    21:00 +21°C° 0 mm 1 m/s 661 mmHg 57%
    22:00 +20°C° 0 mm 2 m/s 662 mmHg 58%
    23:00 +19°C° 0 mm 2 m/s 662 mmHg 59%

    Après-demain, 6 Juin, Samedi

    Heure Température Précipitation Vent Pression Humidité
    00:00 +19°C° 0 mm 3 m/s 662 mmHg 62%
    01:00 +18°C° 0 mm 3 m/s 661 mmHg 66%
    02:00 +17°C° 0 mm 3 m/s 661 mmHg 69%
    03:00 +17°C° 0 mm 3 m/s 661 mmHg 72%
    04:00 +16°C° 0 mm 3 m/s 661 mmHg 74%
    05:00 +16°C° 0 mm 3 m/s 661 mmHg 77%
    06:00 +17°C° 0 mm 3 m/s 662 mmHg 74%
    07:00 +18°C° 0 mm 4 m/s 662 mmHg 71%
    08:00 +19°C° 0 mm 4 m/s 663 mmHg 67%
    09:00 +21°C° 0 mm 4 m/s 663 mmHg 59%
    10:00 +23°C° 0 mm 4 m/s 664 mmHg 51%
    11:00 +27°C° 0 mm 3 m/s 664 mmHg 43%
    12:00 +27°C° 0 mm 3 m/s 663 mmHg 41%
    13:00 +27°C° 0 mm 2 m/s 663 mmHg 39%
    14:00 +28°C° 0 mm 2 m/s 662 mmHg 37%
    15:00 +27°C° 0 mm 1 m/s 662 mmHg 40%
    16:00 +26°C° 0 mm 1 m/s 662 mmHg 43%
    17:00 +25°C° 0 mm 1 m/s 661 mmHg 46%
    18:00 +24°C° 0 mm 1 m/s 661 mmHg 48%
    19:00 +23°C° 0 mm 1 m/s 662 mmHg 50%
    20:00 +21°C° 0 mm 1 m/s 662 mmHg 53%
    21:00 +21°C° 0 mm 1 m/s 662 mmHg 53%
    22:00 +19°C° 0 mm 2 m/s 662 mmHg 54%
    23:00 +19°C° 0 mm 2 m/s 662 mmHg 54%

    7 Juin, Dimanche

    Heure Température Précipitation Vent Pression Humidité
    00:00 +18°C° 0 mm 2 m/s 661 mmHg 58%
    01:00 +17°C° 0 mm 2 m/s 661 mmHg 62%
    02:00 +17°C° 0 mm 2 m/s 661 mmHg 66%
    03:00 +16°C° 0 mm 3 m/s 661 mmHg 65%
    04:00 +16°C° 0 mm 3 m/s 661 mmHg 65%
    05:00 +14°C° 0 mm 3 m/s 661 mmHg 64%
    06:00 +15°C° 0 mm 4 m/s 661 mmHg 61%
    07:00 +17°C° 0 mm 4 m/s 662 mmHg 58%
    08:00 +18°C° 0 mm 4 m/s 663 mmHg 55%
    09:00 +20°C° 0 mm 4 m/s 663 mmHg 49%
    10:00 +24°C° 0 mm 3 m/s 663 mmHg 44%
    11:00 +26°C° 0 mm 3 m/s 664 mmHg 39%
    12:00 +27°C° 0 mm 3 m/s 663 mmHg 36%
    13:00 +28°C° 0 mm 2 m/s 663 mmHg 33%
    14:00 +29°C° 0 mm 2 m/s 662 mmHg 30%
    15:00 +28°C° 0 mm 2 m/s 662 mmHg 34%
    16:00 +26°C° 0 mm 1 m/s 661 mmHg 37%
    17:00 +25°C° 0 mm 1 m/s 661 mmHg 41%
    18:00 +23°C° 0 mm 1 m/s 661 mmHg 44%
    19:00 +21°C° 0 mm 1 m/s 661 mmHg 47%
    20:00 +19°C° 0 mm 1 m/s 661 mmHg 49%
    21:00 +18°C° 0 mm 2 m/s 661 mmHg 51%
    22:00 +18°C° 0 mm 3 m/s 661 mmHg 52%
    23:00 +17°C° 0 mm 3 m/s 662 mmHg 53%

    8 Juin, Lundi

    Heure Température Précipitation Vent Pression Humidité
    00:00 +17°C° 0 mm 3 m/s 661 mmHg 57%
    01:00 +16°C° 0 mm 3 m/s 661 mmHg 60%
    02:00 +14°C° 0 mm 3 m/s 661 mmHg 64%
    03:00 +14°C° 0 mm 3 m/s 661 mmHg 65%
    04:00 +14°C° 0 mm 4 m/s 661 mmHg 66%
    05:00 +13°C° 0 mm 4 m/s 661 mmHg 67%
    06:00 +14°C° 0 mm 4 m/s 661 mmHg 65%
    07:00 +15°C° 0 mm 4 m/s 662 mmHg 62%
    08:00 +17°C° 0 mm 4 m/s 662 mmHg 60%
    09:00 +19°C° 0 mm 4 m/s 662 mmHg 54%
    10:00 +21°C° 0 mm 4 m/s 663 mmHg 47%
    11:00 +25°C° 0 mm 4 m/s 663 mmHg 41%
    12:00 +26°C° 0 mm 3 m/s 662 mmHg 37%
    13:00 +27°C° 0 mm 2 m/s 662 mmHg 34%
    14:00 +28°C° 0 mm 2 m/s 661 mmHg 30%
    15:00 +27°C° 0 mm 2 m/s 661 mmHg 33%
    16:00 +26°C° 0 mm 1 m/s 661 mmHg 37%
    17:00 +25°C° 0 mm 1 m/s 660 mmHg 40%
    18:00 +23°C° 0 mm 1 m/s 660 mmHg 44%
    19:00 +21°C° 0 mm 1 m/s 660 mmHg 47%
    20:00 +18°C° 0 mm 1 m/s 660 mmHg 50%
    21:00 +17°C° 0 mm 2 m/s 660 mmHg 50%
    22:00 +17°C° 0 mm 3 m/s 660 mmHg 51%
    23:00 +17°C° 0 mm 4 m/s 661 mmHg 52%

    9 Juin, Mardi

    Heure Température Précipitation Vent Pression Humidité
    00:00 +15°C° 0 mm 4 m/s 660 mmHg 55%
    01:00 +14°C° 0 mm 3 m/s 660 mmHg 58%
    02:00 +13°C° 0 mm 3 m/s 660 mmHg 61%
    03:00 +13°C° 0 mm 3 m/s 660 mmHg 64%
    04:00 +12°C° 0 mm 3 m/s 660 mmHg 66%
    05:00 +12°C° 0 mm 3 m/s 660 mmHg 68%
    06:00 +13°C° 0 mm 4 m/s 660 mmHg 67%
    07:00 +14°C° 0 mm 4 m/s 661 mmHg 67%
    08:00 +15°C° 0 mm 4 m/s 662 mmHg 66%
    09:00 +19°C° 0 mm 4 m/s 662 mmHg 58%
    10:00 +21°C° 0 mm 4 m/s 662 mmHg 50%
    11:00 +25°C° 0 mm 3 m/s 663 mmHg 41%
    12:00 +26°C° 0 mm 3 m/s 662 mmHg 38%
    13:00 +27°C° 0 mm 3 m/s 661 mmHg 35%
    14:00 +28°C° 0 mm 2 m/s 661 mmHg 32%
    15:00 +27°C° 0 mm 2 m/s 660 mmHg 35%
    16:00 +26°C° 0 mm 2 m/s 660 mmHg 39%
    17:00 +25°C° 0 mm 1 m/s 660 mmHg 42%
    18:00 +22°C° 0 mm 1 m/s 659 mmHg 45%
    19:00 +20°C° 0 mm 1 m/s 659 mmHg 48%
    20:00 +18°C° 0 mm 1 m/s 659 mmHg 51%
    21:00 +17°C° 0 mm 2 m/s 659 mmHg 51%
    22:00 +17°C° 0 mm 2 m/s 660 mmHg 51%
    23:00 +16°C° 0 mm 2 m/s 660 mmHg 52%
    Voir plus